Regional Weather Roundup
Issued by NWS

Home | Current Version | Previous Version | Graphics & Text | Print | Product List | Glossary On
Versions: 1 2 3 4 5 6 7 8 9 10 11 12 13 14 15 16 17 18 19 20 21 22 23 24 25 26 27 28 29 30 31 32 33 34 35 36 37 38 39 40 41 42 43 44 45 46 47 48 49 50
000
ASUS43 KLMK 200002
RWRKY
KENTUCKY REGIONAL WEATHER ROUNDUP
NATIONAL WEATHER SERVICE LOUISVILLE KY
800 PM EDT TUE AUG 19 2014

NOTE "FAIR" INDICATES FEW OR NO CLOUDS BELOW 12,000 FEET
WITH NO SIGNIFICANT WEATHER AND/OR OBSTRUCTIONS TO VISIBILITY.

KYZ001>023-026-027-061>063-070>075-200100-
WESTERN AND SOUTH CENTRAL KENTUCKY

CITY           SKY/WX    TMP DP  RH WIND       PRES   REMARKS
PADUCAH        MOCLDY    80  73  79 S3        29.82R
HENDERSON      CLOUDY    82  75  78 CALM      29.80R
OWENSBORO      CLOUDY    84  76  77 SW6       29.81R HX  92
HOPKINSVILLE   MOCLDY    86  75  70 S9        29.82F HX  95
BOWLING GREEN  MOCLDY    86  70  58 W6        29.84R HX  90
GLASGOW        MOCLDY    82  70  66 CALM      29.85S
$$

KYZ024-025-028>034-038-045-046-053-200100-
NORTH CENTRAL KENTUCKY

CITY           SKY/WX    TMP DP  RH WIND       PRES   REMARKS
LOUISVILLE/SDF MOCLDY    85  69  58 SW6       29.82R
LOUISVILLE/LOU CLOUDY    84  69  60 S5        29.83R
FORT KNOX      CLOUDY    80  75  84 CALM      29.83R
$$

KYZ035>037-039>044-047>052-055>060-089>105-200100-
NORTHEAST KENTUCKY

CITY           SKY/WX    TMP DP  RH WIND       PRES   REMARKS
LEXINGTON      PTCLDY    81  71  71 S5        29.86S
COVINGTON      MOCLDY    82  66  58 W5        29.84R
FRANKFORT      PTCLDY    81  69  67 S5        29.83F
$$

KYZ054-064>069-076>088-106>120-200100-
SOUTHEAST KENTUCKY

CITY           SKY/WX    TMP DP  RH WIND       PRES   REMARKS
JACKSON        CLEAR     79  69  71 CALM      29.90R
LONDON         CLEAR     82  68  62 SW3       29.90S
SOMERSET       CLEAR     79  68  69 CALM      29.90R
MIDDLESBORO    PTCLDY    79  70  75 W3        29.92R
MONTICELLO     CLEAR     80  73  79 CALM      29.90R
$$




USA.gov is the U.S. government's official web portal to all federal, state and local government web resources and services.